Regional Weather Roundup
Issued by NWS

Home | Current Version | Previous Version | Graphics & Text | Print | Product List | Glossary On
Versions: 1 2 3 4 5 6 7 8 9 10 11 12 13 14 15 16 17 18 19 20 21 22 23 24 25 26 27 28 29 30 31 32 33 34 35 36 37 38 39 40 41 42 43 44 45 46 47 48 49 50
000
ASUS45 KABQ 031210
RWRNM
NEW MEXICO REGIONAL WEATHER ROUNDUP
NATIONAL WEATHER SERVICE ALBUQUERQUE NM
600 AM MDT TUE MAY 03 2016

NOTE: "FAIR" MEANS FEW OR NO CLOUDS BELOW 12,000 FEET AGL WITH NO
       SIGNIFICANT WEATHER OR OBSTRUCTIONS TO VISION.

      THIS PRODUCT IS RELEASED AS TWO VERSIONS.  ONE VERSION NEAR
      THE TOP OF THE HOUR CONTAINING PRELIMINARY DATA FROM ALBUQUERQUE
      AND OTHER STATIONS.  A FINAL VERSION WITH ADDITIONAL DATA IS
      ISSUED ABOUT 10 MINUTES AFTER THE HOUR.

NMZ501-503-504-510>518-031300-
NORTHWEST PLATEAU/NORTHCENTRAL MOUNTAINS

CITY           SKY/WX    TMP DP  RH WIND       PRES   REMARKS
FARMINGTON     FAIR      37  35  92 NE6       30.18S WCI  32
6HR MIN TEMP:  36; 6HR MAX TEMP:  47;

LOS ALAMOS     FAIR      40  33  74 NW7       30.21S
SANTA FE       FAIR      36  32  85 N7        30.17S WCI  30
6HR MIN TEMP:  36; 6HR MAX TEMP:  49;

TAOS           FAIR      28  23  80 N6        30.22R WCI  22
ANGEL FIRE     FAIR      22  20  92 CALM      30.25R

$$
NMZ402-403-502-505>509-031300-
WESTCENTRAL MOUNTAINS/SOUTHWEST MOUNTAINS

CITY           SKY/WX    TMP DP  RH WIND       PRES   REMARKS
GALLUP         CLOUDY    40  37  89 CALM      30.21S
6HR MIN TEMP:  38; 6HR MAX TEMP:  43;

GRANTS         FAIR      37  36  98 W3        30.23S
SILVER CITY      N/A     37  25  60 N6        30.14R WCI  33

$$
NMZ407-409-411-412-031300-
SOUTHERN DESERTS

CITY           SKY/WX    TMP DP  RH WIND       PRES   REMARKS
LORDSBURG      FAIR      48  30  49 S8        30.06S
DEMING         FAIR      51  29  42 NE12      30.09R
6HR MIN TEMP:  48; 6HR MAX TEMP:  53;

LAS CRUCES     FAIR      45  28  52 N6        30.11R
HOLLOMAN AFB   FAIR      44  27  50 NE9       30.10S
ALAMOGORDO     FAIR      52  27  37 N9        30.12S
T OR C         FAIR      48  36  63 NW5       30.13S
6HR MIN TEMP:  48; 6HR MAX TEMP:  56;


$$
NMZ519>523-031300-
CENTRAL VALLEYS/CENTRAL HIGHLANDS

CITY           SKY/WX    TMP DP  RH WIND       PRES   REMARKS
ALBUQUERQUE    FAIR      49  38  65 NE7       30.16S
6HR MIN TEMP:  49; 6HR MAX TEMP:  55;

DOUBLE EAGLE   PTCLDY    43  36  75 VRB6      30.18R
MORIARTY ARPT  FAIR      33  28  83 NW3       30.18R
6HR MIN TEMP:  32; 6HR MAX TEMP:  50;

CLINES CORNERS FAIR      40  32  73 N9        30.16R WCI  34
6HR MIN TEMP:  39; 6HR MAX TEMP:  44;

BELEN          FAIR      43  39  86 CALM      30.17R
6HR MIN TEMP:  41; 6HR MAX TEMP:  50;

SOCORRO        FAIR      45  38  78 CALM      30.14S
6HR MIN TEMP:  42; 6HR MAX TEMP:  56;


$$
NMZ524>526-539-540-031300-
SOUTHCENTRAL MOUNTAINS

CITY           SKY/WX    TMP DP  RH WIND       PRES   REMARKS
RUIDOSO          N/A     39  28  65 W10       30.19S WCI  32

$$
NMZ527>531-031300-
NORTHEAST HIGHLANDS/NORTHEAST PLAINS

CITY           SKY/WX    TMP DP  RH WIND       PRES   REMARKS
LAS VEGAS      FAIR      34  30  85 N3        30.15S
6HR MIN TEMP:  34; 6HR MAX TEMP:  40;

RATON          FAIR      31  28  89 NE7       30.15R WCI  24
6HR MIN TEMP:  29; 6HR MAX TEMP:  37;

CLAYTON        CLOUDY    43  35  73 NW8       30.10S HAZE
6HR MIN TEMP:  39; 6HR MAX TEMP:  44;


$$
NMZ532>537-031300-
EASTCENTRAL PLAINS

CITY           SKY/WX    TMP DP  RH WIND       PRES   REMARKS
TUCUMCARI      FAIR      40  34  79 SW3       30.06F
6HR MIN TEMP:  39; 6HR MAX TEMP:  46;

CANNON AFB     FAIR      41  34  74 CALM      30.10S
6HR MIN TEMP:  38; 6HR MAX TEMP:  46;

CLOVIS AIRPORT FAIR      37  30  75 S5        30.11S WCI  34

$$
NMZ028-029-538-031300-
SOUTHEAST PLAINS

CITY           SKY/WX    TMP DP  RH WIND       PRES   REMARKS
ROSWELL        FAIR      37  29  72 SW3       30.09R
6HR MIN TEMP:  37; 6HR MAX TEMP:  55;

ARTESIA        FAIR      41  30  65 W7        30.10S
CARLSBAD       FAIR      41  30  65 NW5       30.09R
6HR MIN TEMP:  39; 6HR MAX TEMP:  50;

HOBBS          CLEAR     43  37  81 S3        30.12S


$$




USA.gov is the U.S. government's official web portal to all federal, state and local government web resources and services.